TimeCDT,TemperatureF,Dew PointF,Humidity,Sea Level PressureIn,VisibilityMPH,Wind Direction,Wind SpeedMPH,Gust SpeedMPH,PrecipitationIn,Events,Conditions,WindDirDegrees,DateUTC
12:15 AM,65.7,57.7,76,29.93,10.0,SE,9.2,-,N/A,,Unknown,130,2013-10-02 05:15:00
12:35 AM,64.9,57.6,77,29.93,10.0,SE,9.2,-,N/A,,Unknown,130,2013-10-02 05:35:00
12:55 AM,65.3,57.7,76,29.92,10.0,SE,12.7,-,N/A,,Unknown,140,2013-10-02 05:55:00
1:15 AM,64.9,57.7,77,29.92,10.0,SSE,11.5,-,N/A,,Unknown,150,2013-10-02 06:15:00
1:35 AM,64.9,58.1,78,29.92,10.0,SSE,11.5,-,N/A,,Unknown,150,2013-10-02 06:35:00
1:55 AM,64.8,58.1,79,29.92,10.0,SSE,12.7,-,N/A,,Unknown,150,2013-10-02 06:55:00
2:15 AM,64.4,58.3,80,29.92,10.0,SSE,13.8,-,N/A,,Unknown,150,2013-10-02 07:15:00
2:35 AM,64.4,58.5,81,29.91,10.0,SSE,12.7,-,N/A,,Unknown,150,2013-10-02 07:35:00
2:55 AM,64.4,58.6,82,29.91,10.0,SSE,17.3,-,N/A,,Unknown,150,2013-10-02 07:55:00
3:15 AM,64.6,58.8,82,29.90,10.0,SSE,16.1,-,N/A,,Unknown,160,2013-10-02 08:15:00
3:35 AM,64.4,58.8,82,29.90,10.0,SSE,16.1,-,N/A,,Unknown,160,2013-10-02 08:35:00
3:55 AM,63.5,58.6,84,29.89,10.0,SSE,12.7,-,N/A,,Unknown,150,2013-10-02 08:55:00
4:15 AM,63.1,59.0,86,29.89,10.0,SSE,12.7,-,N/A,,Unknown,150,2013-10-02 09:15:00
4:35 AM,63.0,59.0,87,29.89,10.0,SSE,13.8,-,N/A,,Unknown,150,2013-10-02 09:35:00
4:55 AM,63.0,59.2,87,29.89,10.0,SSE,11.5,-,N/A,,Unknown,150,2013-10-02 09:55:00
5:15 AM,62.6,59.2,89,29.89,10.0,SSE,11.5,-,N/A,,Unknown,150,2013-10-02 10:15:00
5:35 AM,62.6,59.4,89,29.88,10.0,SE,13.8,-,N/A,,Unknown,140,2013-10-02 10:35:00
5:55 AM,62.1,59.4,91,29.89,10.0,SSE,10.4,-,N/A,,Unknown,160,2013-10-02 10:55:00
6:15 AM,62.2,59.4,90,29.89,10.0,SSE,10.4,-,N/A,,Unknown,150,2013-10-02 11:15:00
6:35 AM,61.7,59.2,91,29.89,10.0,SSE,6.9,-,N/A,,Unknown,150,2013-10-02 11:35:00
6:55 AM,60.8,59.0,94,29.90,7.0,SSE,8.1,-,N/A,,Unknown,160,2013-10-02 11:55:00
7:15 AM,60.3,58.5,94,29.90,7.0,SSE,8.1,-,N/A,,Unknown,160,2013-10-02 12:15:00
7:35 AM,60.1,58.6,95,29.90,7.0,SSE,8.1,-,N/A,,Unknown,150,2013-10-02 12:35:00
7:55 AM,59.2,57.9,96,29.90,4.0,SSE,6.9,-,N/A,,Unknown,150,2013-10-02 12:55:00
8:15 AM,59.9,59.0,97,29.91,5.0,SSE,9.2,-,N/A,,Unknown,150,2013-10-02 13:15:00
8:35 AM,61.2,60.1,96,29.90,5.0,SSE,8.1,-,N/A,,Unknown,150,2013-10-02 13:35:00
8:55 AM,62.8,61.0,94,29.90,7.0,SSE,10.4,-,N/A,,Unknown,150,2013-10-02 13:55:00
9:15 AM,64.4,61.7,91,29.91,10.0,SSE,12.7,-,N/A,,Unknown,160,2013-10-02 14:15:00
9:35 AM,65.8,61.7,86,29.91,10.0,South,16.1,-,N/A,,Unknown,170,2013-10-02 14:35:00
9:55 AM,68.0,61.9,81,29.91,10.0,South,15.0,20.7,N/A,,Unknown,170,2013-10-02 14:55:00
10:15 AM,69.3,61.5,76,29.91,10.0,South,15.0,-,N/A,,Unknown,180,2013-10-02 15:15:00
10:35 AM,70.5,61.3,73,29.91,10.0,South,15.0,-,N/A,,Unknown,170,2013-10-02 15:35:00
10:55 AM,71.6,60.6,68,29.91,10.0,South,16.1,-,N/A,,Clear,190,2013-10-02 15:55:00
11:15 AM,73.0,60.8,65,29.92,10.0,South,12.7,-,N/A,,Clear,190,2013-10-02 16:15:00
11:35 AM,73.8,60.3,63,29.91,10.0,South,12.7,18.4,N/A,,Clear,190,2013-10-02 16:35:00
11:55 AM,75.2,59.9,59,29.91,10.0,South,11.5,18.4,N/A,,Clear,170,2013-10-02 16:55:00
12:55 PM,79.3,57.4,47,29.88,10.0,South,13.8,20.7,N/A,,Clear,170,2013-10-02 17:55:00
1:15 PM,80.6,56.1,43,29.88,10.0,South,15.0,21.9,N/A,,Clear,170,2013-10-02 18:15:00
1:35 PM,81.7,54.5,39,29.87,10.0,South,17.3,-,N/A,,Clear,170,2013-10-02 18:35:00
1:55 PM,82.2,55.9,40,29.86,10.0,South,17.3,-,N/A,,Clear,170,2013-10-02 18:55:00
2:15 PM,83.5,55.8,39,29.85,10.0,SSE,19.6,24.2,N/A,,Clear,160,2013-10-02 19:15:00
2:35 PM,84.0,53.6,35,29.85,10.0,SSE,20.7,24.2,N/A,,Clear,160,2013-10-02 19:35:00
2:55 PM,84.7,54.3,35,29.84,10.0,South,17.3,25.3,N/A,,Clear,170,2013-10-02 19:55:00
3:15 PM,85.3,53.2,33,29.83,10.0,South,20.7,25.3,N/A,,Clear,170,2013-10-02 20:15:00
3:35 PM,86.0,53.2,32,29.83,10.0,South,20.7,27.6,N/A,,Clear,170,2013-10-02 20:35:00
3:55 PM,86.2,53.2,32,29.82,10.0,South,19.6,28.8,N/A,,Clear,170,2013-10-02 20:55:00
4:15 PM,85.8,54.7,34,29.82,10.0,South,20.7,25.3,N/A,,Clear,170,2013-10-02 21:15:00
4:35 PM,85.3,54.5,35,29.81,10.0,SSE,23.0,28.8,N/A,,Clear,160,2013-10-02 21:35:00
4:55 PM,85.6,54.9,35,29.81,10.0,South,25.3,31.1,N/A,,Clear,170,2013-10-02 21:55:00
5:15 PM,85.3,54.9,35,29.81,10.0,South,23.0,27.6,N/A,,Clear,170,2013-10-02 22:15:00
5:35 PM,85.1,55.2,36,29.80,10.0,South,23.0,-,N/A,,Clear,180,2013-10-02 22:35:00
5:55 PM,84.6,53.4,34,29.80,10.0,South,23.0,26.5,N/A,,Clear,170,2013-10-02 22:55:00
6:15 PM,83.8,54.7,37,29.81,10.0,South,20.7,26.5,N/A,,Clear,170,2013-10-02 23:15:00
6:35 PM,82.8,56.3,40,29.80,10.0,SSE,19.6,29.9,N/A,,Clear,160,2013-10-02 23:35:00
6:55 PM,81.1,58.6,46,29.80,10.0,SSE,16.1,-,N/A,,Clear,160,2013-10-02 23:55:00
7:15 PM,79.5,59.9,51,29.80,10.0,SSE,16.1,-,N/A,,Clear,160,2013-10-03 00:15:00
7:35 PM,78.3,59.9,53,29.81,10.0,SSE,18.4,-,N/A,,Clear,160,2013-10-03 00:35:00
7:55 PM,76.5,60.8,58,29.81,10.0,SSE,15.0,-,N/A,,Clear,150,2013-10-03 00:55:00
8:15 PM,75.2,61.2,62,29.82,10.0,SSE,13.8,-,N/A,,Clear,150,2013-10-03 01:15:00
8:35 PM,75.6,62.2,63,29.82,10.0,SSE,17.3,-,N/A,,Clear,150,2013-10-03 01:35:00
8:55 PM,74.8,62.6,66,29.83,10.0,SSE,19.6,-,N/A,,Clear,160,2013-10-03 01:55:00
9:15 PM,74.3,62.6,67,29.83,10.0,SSE,18.4,-,N/A,,Clear,160,2013-10-03 02:15:00
9:35 PM,74.3,62.1,65,29.84,10.0,SSE,20.7,-,N/A,,Clear,160,2013-10-03 02:35:00
9:55 PM,73.8,61.9,66,29.84,10.0,SSE,20.7,-,N/A,,Clear,160,2013-10-03 02:55:00
10:15 PM,73.2,61.9,68,29.84,10.0,SSE,18.4,-,N/A,,Clear,160,2013-10-03 03:15:00
10:35 PM,72.7,61.7,68,29.84,10.0,SSE,18.4,-,N/A,,Clear,160,2013-10-03 03:35:00
10:55 PM,72.0,61.7,70,29.85,10.0,SSE,17.3,-,N/A,,Clear,160,2013-10-03 03:55:00
11:15 PM,71.2,61.7,72,29.85,10.0,South,17.3,-,N/A,,Clear,170,2013-10-03 04:15:00
11:35 PM,71.2,62.1,73,29.84,10.0,SSE,18.4,-,N/A,,Clear,160,2013-10-03 04:35:00
11:55 PM,70.3,62.2,75,29.84,10.0,SSE,17.3,-,N/A,,Clear,160,2013-10-03 04:55:00